STARLINK-5111 (56146 NORAD) Tracking and Keplerian Element Data

This shows tracking and keplerian element data for the satellite.

Feedback or suggestion? Click here.




ElementValue
Catalog56146
NameSTARLINK-5111
Epoch Orbit656
Epoch Day127.25001157
Epoch Year2023
RAAN33.6691
Inclination43.0016
Eccentricity0.0001427
Argument of Perigee268.7525
Mean Anonmoly359.8896
Mean Motion15.48874165
Decay Rate0.00072312
L11 56146U 23046BG 23127.25001157 .00072312 00000+0 13032-2 0 9998
L22 56146 43.0016 33.6691 0001427 268.7525 359.8896 15.48874165 6569



Live tracking and technical data element details for STARLINK-5111 (NORAD 56146). STARLINK-5111 can be tracked NOW for your location showing map with azimuth and elevation plus other details from your city location.







IsCatalogInMostPopularTable: catalog: 56146, numindb: 3
Update: records affected: 1



GetName: 56146 STARLINK-5111

Hit Count: updated at: Sat, 03 Jun 2023 17:00:26 GMT